This is the latest recevied weather packets stored in our database for station/object K0SNA. If no packets are shown the sender has not sent any weather packets the latest 10 day(s).
| Time | Temp. | Humidity | Pressure | Rain* | Wind** | Luminosity | Snow |
|---|---|---|---|---|---|---|---|
| 1777415649 | 12.78° C | 41% | 1015.1 hPa | 0 mm | - | 102 W/m² | - |
| 1777415345 | 13.33° C | 41% | 1015 hPa | 0 mm | - | 123 W/m² | - |
| 1777415039 | 12.78° C | 40% | 1014.9 hPa | 0 mm | - | 268 W/m² | - |
| 1777414738 | 13.33° C | 40% | 1014.9 hPa | 0 mm | - | 273 W/m² | - |
| 1777414435 | 12.78° C | 41% | 1015.1 hPa | 0 mm | - | 280 W/m² | - |
| 1777414134 | 13.33° C | 40% | 1015 hPa | 0 mm | - | 311 W/m² | - |
| 1777413830 | 12.78° C | 40% | 1015.3 hPa | 0 mm | - | 281 W/m² | - |
| 1777413525 | 12.22° C | 41% | 1015.2 hPa | 0 mm | - | 312 W/m² | - |
| 1777413222 | 12.78° C | 40% | 1015.3 hPa | 0 mm | - | 290 W/m² | - |
| 1777412917 | 12.78° C | 41% | 1015.2 hPa | 0 mm | - | 183 W/m² | - |
| 1777412617 | 12.78° C | 42% | 1015.3 hPa | 0 mm | - | 327 W/m² | - |
| 1777412314 | 12.78° C | 40% | 1015.4 hPa | 0 mm | - | 241 W/m² | - |
| 1777412009 | 12.78° C | 40% | 1015.4 hPa | 0 mm | - | 369 W/m² | - |
| 1777411708 | 12.78° C | 41% | 1015.3 hPa | 0 mm | - | 331 W/m² | - |
| 1777411403 | 13.33° C | 40% | 1015.6 hPa | 0 mm | - | 197 W/m² | - |
| 1777411097 | 13.33° C | 40% | 1015.3 hPa | 0 mm | - | 305 W/m² | - |
| 1777410792 | 13.33° C | 40% | 1015.3 hPa | 0 mm | - | 306 W/m² | - |
| 1777410490 | 13.33° C | 39% | 1015.5 hPa | 0 mm | - | 465 W/m² | - |
| 1777410190 | 12.78° C | 40% | 1015.5 hPa | 0 mm | - | 393 W/m² | - |
| 1777409886 | 13.33° C | 39% | 1015.5 hPa | 0 mm | - | 369 W/m² | - |
| 1777409582 | 13.89° C | 39% | 1015.5 hPa | 0 mm | - | 453 W/m² | - |
| 1777409277 | 13.89° C | 38% | 1015.6 hPa | 0 mm | - | 489 W/m² | - |
| 1777408974 | 13.89° C | 38% | 1015.9 hPa | 0 mm | - | 456 W/m² | - |
| 1777408670 | 13.33° C | 40% | 1015.8 hPa | 0 mm | - | 511 W/m² | - |
| 1777408366 | 13.33° C | 39% | 1015.6 hPa | 0 mm | - | 381 W/m² | - |
* Rain latest hour (hover to see other rain measurements)
** Current wind speed in m/s (hover to see current wind gust speed)